,,PA_Meas_PMT16A,,PR_Meas_QMR101_102,,RH_Meas_QMH101,,SR_Meas_QMS101,,TA_Meas_QMH101,,GenWind,,GenWind,
time,status,PA,status,PR,status,RH,status,SR,status,TA,status,DirAvg,status,SpdAvg,
2011-03-10, 00:00:04,VALID,918.853,VALID,0,VALID,96.5277,VALID,0,VALID,19.5663,VALID,263,VALID,0.827344,
2011-03-10, 00:01:04,VALID,918.823,VALID,0,VALID,96.5658,VALID,0,VALID,19.5648,VALID,263,VALID,0.716797,
2011-03-10, 00:02:04,VALID,918.796,VALID,0.2,VALID,96.5887,VALID,0,VALID,19.5648,VALID,263,VALID,0.929688,
2011-03-10, 00:03:04,VALID,918.812,VALID,0,VALID,96.6115,VALID,0,VALID,19.5858,VALID,263,VALID,0.922656,
2011-03-10, 00:04:04,VALID,918.783,VALID,0,VALID,96.6573,VALID,0,VALID,19.5843,VALID,263,VALID,0.876172,
2011-03-10, 00:05:04,VALID,918.766,VALID,0,VALID,96.6115,VALID,0.107441,VALID,19.6053,VALID,263,VALID,1.1707,
2011-03-10, 00:06:04,VALID,918.776,VALID,0,VALID,96.6573,VALID,0,VALID,19.5858,VALID,263,VALID,0.941406,
2011-03-10, 00:07:04,VALID,918.743,VALID,0,VALID,96.6954,VALID,0,VALID,19.5648,VALID,263,VALID,0.866797,
2011-03-10, 00:08:04,VALID,918.728,VALID,0,VALID,96.7107,VALID,0,VALID,19.6053,VALID,263,VALID,0.8375,
2011-03-10, 00:09:04,VALID,918.696,VALID,0,VALID,96.6725,VALID,0,VALID,19.5858,VALID,263,VALID,0.946875,
2011-03-10, 00:10:04,VALID,918.696,VALID,0,VALID,96.6344,VALID,0,VALID,19.5453,VALID,263,VALID,0.824609,
2011-03-10, 00:11:04,VALID,918.676,VALID,0,VALID,96.6725,VALID,0,VALID,19.5258,VALID,263,VALID,0.860547,
2011-03-10, 00:12:04,VALID,918.674,VALID,0,VALID,96.6878,VALID,0,VALID,19.5258,VALID,263,VALID,0.488281,
2011-03-10, 00:13:04,VALID,918.653,VALID,0,VALID,96.7183,VALID,0,VALID,19.5453,VALID,263,VALID,0.393359,
2011-03-10, 00:14:04,VALID,918.607,VALID,0.2,VALID,96.7259,VALID,0,VALID,19.5453,VALID,263,VALID,0.410156,
2011-03-10, 00:15:04,VALID,918.616,VALID,0,VALID,96.6954,VALID,0,VALID,19.5063,VALID,262,VALID,0.399609,
2011-03-10, 00:16:04,VALID,918.604,VALID,0,VALID,96.7259,VALID,0,VALID,19.5468,VALID,263,VALID,0.534766,
2011-03-10, 00:17:04,VALID,918.602,VALID,0,VALID,96.764,VALID,0,VALID,19.5063,VALID,263,VALID,0.419141,
2011-03-10, 00:18:04,VALID,918.561,VALID,0,VALID,96.7564,VALID,0,VALID,19.5273,VALID,263,VALID,0.414844,
2011-03-10, 00:19:04,VALID,918.568,VALID,0,VALID,96.7411,VALID,0,VALID,19.5468,VALID,263,VALID,0.516797,
2011-03-10, 00:20:04,VALID,918.556,VALID,0,VALID,96.7793,VALID,0,VALID,19.5663,VALID,263,VALID,0.604688,
2011-03-10, 00:21:04,VALID,918.507,VALID,0,VALID,96.7945,VALID,0,VALID,19.5663,VALID,263,VALID,0.572266,
2011-03-10, 00:22:04,VALID,918.529,VALID,0,VALID,96.7945,VALID,0,VALID,19.5663,VALID,263,VALID,0.710938,
2011-03-10, 00:23:04,VALID,918.521,VALID,0,VALID,96.8098,VALID,0,VALID,19.5858,VALID,263,VALID,0.348828,
2011-03-10, 00:24:04,VALID,918.52,VALID,0,VALID,96.8098,VALID,0,VALID,19.5858,VALID,263,VALID,0.721484,
2011-03-10, 00:25:04,VALID,918.516,VALID,0,VALID,96.8098,VALID,0,VALID,19.5858,VALID,263,VALID,0.774219,
2011-03-10, 00:26:04,VALID,918.511,VALID,0,VALID,96.8021,VALID,0,VALID,19.5858,VALID,263,VALID,0.594531,
2011-03-10, 00:27:04,VALID,918.51,VALID,0,VALID,96.8098,VALID,0,VALID,19.5858,VALID,263,VALID,0.596875,
2011-03-10, 00:28:04,VALID,918.482,VALID,0,VALID,96.8707,VALID,0,VALID,19.6038,VALID,263,VALID,0.501172,
2011-03-10, 00:29:04,VALID,918.484,VALID,0,VALID,96.8555,VALID,0,VALID,19.6443,VALID,263,VALID,0.767187,
2011-03-10, 00:30:04,VALID,918.457,VALID,0.2,VALID,96.8707,VALID,0,VALID,19.6443,VALID,263,VALID,0.846875,
2011-03-10, 00:31:04,VALID,918.446,VALID,0,VALID,96.886,VALID,0,VALID,19.6248,VALID,263,VALID,0.808594,
2011-03-10, 00:32:04,VALID,918.393,VALID,0,VALID,96.8707,VALID,0,VALID,19.6428,VALID,263,VALID,0.794531,
2011-03-10, 00:33:04,VALID,918.385,VALID,0,VALID,96.8479,VALID,0,VALID,19.6248,VALID,263,VALID,0.688281,
2011-03-10, 00:34:04,VALID,918.389,VALID,0,VALID,96.8479,VALID,0,VALID,19.6248,VALID,263,VALID,0.561719,
2011-03-10, 00:35:04,VALID,918.364,VALID,0,VALID,96.8936,VALID,0,VALID,19.6653,VALID,263,VALID,0.675781,
2011-03-10, 00:36:04,VALID,918.353,VALID,0,VALID,96.8784,VALID,0,VALID,19.6428,VALID,263,VALID,0.341797,
2011-03-10, 00:37:04,VALID,918.341,VALID,0,VALID,96.9012,VALID,0,VALID,19.6443,VALID,263,VALID,0.388281,
2011-03-10, 00:38:04,VALID,918.327,VALID,0,VALID,96.8936,VALID,0,VALID,19.6443,VALID,263,VALID,0.884766,
2011-03-10, 00:39:04,VALID,918.297,VALID,0,VALID,96.9165,VALID,0,VALID,19.6443,VALID,263,VALID,0.765625,
2011-03-10, 00:40:04,VALID,918.293,VALID,0,VALID,96.8936,VALID,0,VALID,19.6638,VALID,263,VALID,0.475781,
2011-03-10, 00:41:04,VALID,918.295,VALID,0,VALID,96.9241,VALID,0,VALID,19.6638,VALID,262,VALID,0.615625,
2011-03-10, 00:42:04,VALID,918.262,VALID,0,VALID,96.9089,VALID,0,VALID,19.6638,VALID,158,VALID,0.480469,
2011-03-10, 00:43:04,VALID,918.234,VALID,0,VALID,96.9241,VALID,0,VALID,19.6848,VALID,158,VALID,0.688281,
2011-03-10, 00:44:04,VALID,918.215,VALID,0,VALID,96.9012,VALID,0,VALID,19.6248,VALID,158,VALID,0.763672,
2011-03-10, 00:45:04,VALID,918.212,VALID,0,VALID,96.9241,VALID,0,VALID,19.6443,VALID,158,VALID,0.727734,
2011-03-10, 00:46:04,VALID,918.175,VALID,0.2,VALID,96.9546,VALID,0,VALID,19.6638,VALID,158,VALID,0.607422,
2011-03-10, 00:47:04,VALID,918.18,VALID,0,VALID,96.9622,VALID,0,VALID,19.6638,VALID,158,VALID,0.7625,
2011-03-10, 00:48:04,VALID,918.187,VALID,0,VALID,96.9698,VALID,0,VALID,19.6833,VALID,158,VALID,0.409375,
2011-03-10, 00:49:04,VALID,918.16,VALID,0,VALID,96.9927,VALID,0,VALID,19.6833,VALID,158,VALID,0.458594,
2011-03-10, 00:50:04,VALID,918.137,VALID,0,VALID,96.9698,VALID,0,VALID,19.7043,VALID,158,VALID,0.228906,
2011-03-10, 00:51:04,VALID,918.113,VALID,0,VALID,96.9622,VALID,0,VALID,19.6638,VALID,158,VALID,0.199609,
2011-03-10, 00:52:04,VALID,918.096,VALID,0,VALID,96.9546,VALID,0,VALID,19.6638,VALID,158,VALID,0.595312,
2011-03-10, 00:53:04,VALID,918.108,VALID,0,VALID,96.9622,VALID,0,VALID,19.6638,VALID,158,VALID,0.667969,
2011-03-10, 00:54:04,VALID,918.061,VALID,0,VALID,96.9698,VALID,0,VALID,19.6638,VALID,158,VALID,0.544922,
2011-03-10, 00:55:04,VALID,918.076,VALID,0,VALID,96.9546,VALID,0,VALID,19.6248,VALID,158,VALID,0.560156,
2011-03-10, 00:56:04,VALID,918.054,VALID,0,VALID,96.9394,VALID,0,VALID,19.6248,VALID,158,VALID,0.630859,
2011-03-10, 00:57:04,VALID,918.046,VALID,0,VALID,96.9317,VALID,0,VALID,19.6248,VALID,158,VALID,0.424219,
2011-03-10, 00:58:04,VALID,918.033,VALID,0,VALID,96.947,VALID,0,VALID,19.5858,VALID,158,VALID,0.698047,
2011-03-10, 00:59:04,VALID,918.034,VALID,0,VALID,96.9698,VALID,0,VALID,19.6053,VALID,158,VALID,0.461328,
2011-03-10, 01:00:04,VALID,918.034,VALID,0,VALID,96.9698,VALID,0,VALID,19.6053,VALID,158,VALID,0.855859,
2011-03-10, 01:01:04,VALID,918.025,VALID,0,VALID,96.9927,VALID,0,VALID,19.6053,VALID,158,VALID,0.433984,
2011-03-10, 01:02:04,VALID,918.048,VALID,0,VALID,96.9622,VALID,0,VALID,19.6068,VALID,158,VALID,0.373047,
2011-03-10, 01:03:04,VALID,918.03,VALID,0,VALID,96.947,VALID,0,VALID,19.5858,VALID,158,VALID,0.859766,
2011-03-10, 01:04:04,VALID,918.008,VALID,0,VALID,96.947,VALID,0,VALID,19.5873,VALID,158,VALID,0.578125,
2011-03-10, 01:05:04,VALID,917.993,VALID,0,VALID,96.9317,VALID,0,VALID,19.5663,VALID,158,VALID,0.769141,
2011-03-10, 01:06:04,VALID,917.962,VALID,0,VALID,96.947,VALID,0,VALID,19.5663,VALID,158,VALID,0.753125,
2011-03-10, 01:07:04,VALID,917.951,VALID,0,VALID,96.9394,VALID,0,VALID,19.5663,VALID,158,VALID,0.701563,
2011-03-10, 01:08:04,VALID,917.926,VALID,0,VALID,96.947,VALID,0,VALID,19.5468,VALID,158,VALID,0.878516,
2011-03-10, 01:09:04,VALID,917.957,VALID,0,VALID,96.9546,VALID,0,VALID,19.5468,VALID,158,VALID,0.894922,
2011-03-10, 01:10:04,VALID,917.945,VALID,0,VALID,96.9775,VALID,0,VALID,19.5453,VALID,158,VALID,0.834375,
2011-03-10, 01:11:04,VALID,917.917,VALID,0,VALID,96.9851,VALID,0,VALID,19.5468,VALID,158,VALID,0.46875,
2011-03-10, 01:12:04,VALID,917.907,VALID,0,VALID,96.9927,VALID,0,VALID,19.5663,VALID,158,VALID,0.414844,
2011-03-10, 01:13:04,VALID,917.89,VALID,0,VALID,96.9851,VALID,0,VALID,19.5648,VALID,158,VALID,0.863672,
2011-03-10, 01:14:04,VALID,917.884,VALID,0,VALID,96.9775,VALID,0,VALID,19.5468,VALID,158,VALID,0.460156,
2011-03-10, 01:15:04,VALID,917.911,VALID,0,VALID,96.9927,VALID,0,VALID,19.5453,VALID,158,VALID,0.611328,
2011-03-10, 01:16:04,VALID,917.892,VALID,0,VALID,97.0003,VALID,0,VALID,19.5858,VALID,158,VALID,0.63125,
2011-03-10, 01:17:04,VALID,917.899,VALID,0,VALID,97.008,VALID,0,VALID,19.5648,VALID,158,VALID,0.374609,
2011-03-10, 01:18:04,VALID,917.892,VALID,0,VALID,97.0232,VALID,0,VALID,19.6053,VALID,158,VALID,0.729297,
2011-03-10, 01:19:04,VALID,917.885,VALID,0,VALID,97.0232,VALID,0,VALID,19.5843,VALID,158,VALID,0.407031,
2011-03-10, 01:20:04,VALID,917.884,VALID,0,VALID,96.9927,VALID,0,VALID,19.5648,VALID,158,VALID,0.816016,
2011-03-10, 01:21:04,VALID,917.872,VALID,0,VALID,97.0232,VALID,0.107441,VALID,19.5648,VALID,158,VALID,0.59375,
2011-03-10, 01:22:04,VALID,917.86,VALID,0.2,VALID,96.9927,VALID,0,VALID,19.5858,VALID,158,VALID,0.465234,
2011-03-10, 01:23:04,VALID,917.829,VALID,0,VALID,97.0156,VALID,0,VALID,19.5858,VALID,158,VALID,0.333594,
2011-03-10, 01:24:04,VALID,917.795,VALID,0,VALID,97.0232,VALID,0,VALID,19.5843,VALID,158,VALID,0.6,
2011-03-10, 01:25:04,VALID,917.78,VALID,0,VALID,97.0232,VALID,0,VALID,19.5843,VALID,158,VALID,0.827344,
2011-03-10, 01:26:04,VALID,917.755,VALID,0,VALID,96.9927,VALID,0,VALID,19.5858,VALID,158,VALID,0.844531,
2011-03-10, 01:27:04,VALID,917.715,VALID,0,VALID,97.008,VALID,0,VALID,19.6053,VALID,158,VALID,0.548047,
2011-03-10, 01:28:04,VALID,917.699,VALID,0,VALID,97.0232,VALID,0,VALID,19.5858,VALID,158,VALID,0.503516,
2011-03-10, 01:29:04,VALID,917.677,VALID,0,VALID,97.0156,VALID,0,VALID,19.5858,VALID,158,VALID,0.740234,
2011-03-10, 01:30:04,VALID,917.646,VALID,0,VALID,97.0385,VALID,0,VALID,19.5858,VALID,158,VALID,0.550781,
2011-03-10, 01:31:04,VALID,917.643,VALID,0,VALID,97.0461,VALID,0,VALID,19.5648,VALID,158,VALID,0.785156,
2011-03-10, 01:32:04,VALID,917.63,VALID,0,VALID,97.0461,VALID,0,VALID,19.5663,VALID,158,VALID,1.15273,
2011-03-10, 01:33:04,VALID,917.612,VALID,0,VALID,97.0385,VALID,0,VALID,19.5648,VALID,158,VALID,0.653906,
2011-03-10, 01:34:04,VALID,917.609,VALID,0,VALID,97.0537,VALID,0,VALID,19.5858,VALID,158,VALID,0.508984,
2011-03-10, 01:35:04,VALID,917.575,VALID,0,VALID,97.0461,VALID,0,VALID,19.5858,VALID,158,VALID,0.773438,
2011-03-10, 01:36:04,VALID,917.539,VALID,0,VALID,97.0613,VALID,0,VALID,19.5663,VALID,158,VALID,1.13984,
2011-03-10, 01:37:04,VALID,917.515,VALID,0,VALID,97.0461,VALID,0,VALID,19.5663,VALID,158,VALID,0.880859,
2011-03-10, 01:38:04,VALID,917.474,VALID,0,VALID,97.0613,VALID,0,VALID,19.5663,VALID,158,VALID,0.570703,
2011-03-10, 01:39:04,VALID,917.417,VALID,0,VALID,97.0613,VALID,0,VALID,19.5858,VALID,158,VALID,0.887109,
2011-03-10, 01:40:04,VALID,917.418,VALID,0,VALID,97.0766,VALID,0,VALID,19.5648,VALID,158,VALID,0.569141,
2011-03-10, 01:41:04,VALID,917.384,VALID,0,VALID,97.0994,VALID,0.107441,VALID,19.5453,VALID,158,VALID,0.6625,
2011-03-10, 01:42:04,VALID,917.371,VALID,0,VALID,97.0994,VALID,0,VALID,19.5663,VALID,158,VALID,0.7875,
2011-03-10, 01:43:04,VALID,917.407,VALID,0,VALID,97.0766,VALID,0,VALID,19.5453,VALID,158,VALID,0.641797,
2011-03-10, 01:44:04,VALID,917.369,VALID,0,VALID,97.0918,VALID,0,VALID,19.5663,VALID,158,VALID,0.557031,
2011-03-10, 01:45:04,VALID,917.336,VALID,0,VALID,97.0994,VALID,0,VALID,19.5468,VALID,158,VALID,0.537891,
2011-03-10, 01:46:04,VALID,917.325,VALID,0,VALID,97.0918,VALID,0,VALID,19.5663,VALID,158,VALID,0.531641,
2011-03-10, 01:47:04,VALID,917.286,VALID,0,VALID,97.1071,VALID,0,VALID,19.5468,VALID,158,VALID,0.346094,
2011-03-10, 01:48:04,VALID,917.29,VALID,0,VALID,97.1223,VALID,0,VALID,19.5468,VALID,158,VALID,0.926562,
2011-03-10, 01:49:04,VALID,917.278,VALID,0,VALID,97.1147,VALID,0,VALID,19.5273,VALID,158,VALID,0.700391,
2011-03-10, 01:50:04,VALID,917.257,VALID,0,VALID,97.1147,VALID,0,VALID,19.4868,VALID,158,VALID,0.664063,
2011-03-10, 01:51:04,VALID,917.21,VALID,0,VALID,97.1147,VALID,0,VALID,19.5273,VALID,158,VALID,0.642578,
2011-03-10, 01:52:04,VALID,917.198,VALID,0,VALID,97.1223,VALID,0,VALID,19.5078,VALID,158,VALID,1.03711,
2011-03-10, 01:53:04,VALID,917.177,VALID,0,VALID,97.1223,VALID,0,VALID,19.4883,VALID,158,VALID,0.457422,
2011-03-10, 01:54:04,VALID,917.148,VALID,0,VALID,97.1223,VALID,0,VALID,19.4883,VALID,158,VALID,0.602734,
2011-03-10, 01:55:04,VALID,917.15,VALID,0,VALID,97.1452,VALID,0,VALID,19.4868,VALID,158,VALID,0.436719,
2011-03-10, 01:56:04,VALID,917.1,VALID,0,VALID,97.1376,VALID,0,VALID,19.4883,VALID,158,VALID,0.7125,
2011-03-10, 01:57:04,VALID,917.069,VALID,0,VALID,97.1223,VALID,0,VALID,19.4283,VALID,158,VALID,0.626953,
2011-03-10, 01:58:04,VALID,917.084,VALID,0,VALID,97.1223,VALID,0,VALID,19.4298,VALID,158,VALID,0.735156,
2011-03-10, 01:59:04,VALID,917.043,VALID,0,VALID,97.1604,VALID,0,VALID,19.4298,VALID,158,VALID,0.964063,
2011-03-10, 02:00:04,VALID,917.05,VALID,0,VALID,97.1299,VALID,0,VALID,19.3908,VALID,158,VALID,0.677734,
2011-03-10, 02:01:04,VALID,916.972,VALID,0,VALID,97.1452,VALID,0,VALID,19.3908,VALID,158,VALID,0.956641,
2011-03-10, 02:02:04,VALID,916.955,VALID,0,VALID,97.1299,VALID,0,VALID,19.3908,VALID,158,VALID,0.667969,
2011-03-10, 02:03:04,VALID,916.924,VALID,0,VALID,97.1452,VALID,0,VALID,19.3698,VALID,158,VALID,0.882422,
2011-03-10, 02:04:04,VALID,916.914,VALID,0,VALID,97.1452,VALID,0,VALID,19.3713,VALID,158,VALID,0.512891,
2011-03-10, 02:05:04,VALID,916.87,VALID,0,VALID,97.1757,VALID,0,VALID,19.3908,VALID,158,VALID,0.503125,
2011-03-10, 02:06:04,VALID,916.885,VALID,0,VALID,97.1528,VALID,0,VALID,19.3713,VALID,158,VALID,0.910547,
2011-03-10, 02:07:04,VALID,916.842,VALID,0,VALID,97.1757,VALID,0,VALID,19.3713,VALID,158,VALID,0.689062,
2011-03-10, 02:08:04,VALID,916.841,VALID,0,VALID,97.1452,VALID,0,VALID,19.3503,VALID,158,VALID,0.412891,
2011-03-10, 02:09:04,VALID,916.81,VALID,0,VALID,97.1528,VALID,0,VALID,19.3308,VALID,158,VALID,0.647266,
2011-03-10, 02:10:04,VALID,916.807,VALID,0,VALID,97.1681,VALID,0,VALID,19.3323,VALID,158,VALID,0.469141,
2011-03-10, 02:11:04,VALID,916.778,VALID,0,VALID,97.1604,VALID,0,VALID,19.3128,VALID,158,VALID,0.595312,
2011-03-10, 02:12:04,VALID,916.783,VALID,0,VALID,97.1681,VALID,0,VALID,19.3323,VALID,158,VALID,0.566016,
2011-03-10, 02:13:04,VALID,916.754,VALID,0,VALID,97.1757,VALID,0,VALID,19.3128,VALID,158,VALID,0.607813,
2011-03-10, 02:14:04,VALID,916.744,VALID,0,VALID,97.1757,VALID,0,VALID,19.3128,VALID,158,VALID,0.435156,
2011-03-10, 02:15:04,VALID,916.702,VALID,0,VALID,97.1909,VALID,0,VALID,19.2933,VALID,158,VALID,0.369531,
2011-03-10, 02:16:04,VALID,916.711,VALID,0,VALID,97.1681,VALID,0,VALID,19.2933,VALID,158,VALID,0.536328,
2011-03-10, 02:17:04,VALID,916.682,VALID,0,VALID,97.1986,VALID,0,VALID,19.2933,VALID,158,VALID,0.601563,
2011-03-10, 02:18:04,VALID,916.653,VALID,0,VALID,97.1909,VALID,0,VALID,19.2933,VALID,158,VALID,0.582422,
2011-03-10, 02:19:04,VALID,916.638,VALID,0,VALID,97.1833,VALID,0,VALID,19.2933,VALID,158,VALID,0.603906,
2011-03-10, 02:20:04,VALID,916.596,VALID,0,VALID,97.1909,VALID,0,VALID,19.2933,VALID,158,VALID,0.74375,
2011-03-10, 02:21:04,VALID,916.569,VALID,0,VALID,97.1986,VALID,0,VALID,19.2738,VALID,158,VALID,0.586719,
2011-03-10, 02:22:04,VALID,916.553,VALID,0,VALID,97.1833,VALID,0,VALID,19.2334,VALID,158,VALID,0.935156,
2011-03-10, 02:23:04,VALID,916.561,VALID,0,VALID,97.1909,VALID,0,VALID,19.2543,VALID,158,VALID,0.796094,
2011-03-10, 02:24:04,VALID,916.541,VALID,0,VALID,97.1833,VALID,0,VALID,19.2348,VALID,158,VALID,0.769141,
2011-03-10, 02:25:04,VALID,916.551,VALID,0,VALID,97.1986,VALID,0,VALID,19.2348,VALID,158,VALID,0.916797,
2011-03-10, 02:26:04,VALID,916.535,VALID,0,VALID,97.1986,VALID,0,VALID,19.2348,VALID,158,VALID,0.994922,
2011-03-10, 02:27:04,VALID,916.515,VALID,0,VALID,97.2062,VALID,0,VALID,19.2348,VALID,158,VALID,1.20742,
2011-03-10, 02:28:04,VALID,916.517,VALID,0,VALID,97.2062,VALID,0,VALID,19.2153,VALID,158,VALID,1.0207,
2011-03-10, 02:29:04,VALID,916.494,VALID,0,VALID,97.1833,VALID,0,VALID,19.2153,VALID,158,VALID,0.946484,
2011-03-10, 02:30:04,VALID,916.499,VALID,0,VALID,97.1909,VALID,0,VALID,19.1958,VALID,158,VALID,0.777344,
2011-03-10, 02:31:04,VALID,916.456,VALID,0,VALID,97.1909,VALID,0,VALID,19.1763,VALID,158,VALID,0.731641,
2011-03-10, 02:32:04,VALID,916.446,VALID,0,VALID,97.2062,VALID,0.107441,VALID,19.1554,VALID,158,VALID,0.628125,
2011-03-10, 02:33:04,VALID,916.443,VALID,0,VALID,97.1986,VALID,0,VALID,19.1554,VALID,158,VALID,0.725391,
2011-03-10, 02:34:04,VALID,916.397,VALID,0,VALID,97.1833,VALID,0,VALID,19.1359,VALID,158,VALID,0.613672,
2011-03-10, 02:35:04,VALID,916.404,VALID,0,VALID,97.1833,VALID,0,VALID,19.1359,VALID,158,VALID,0.542969,
2011-03-10, 02:36:04,VALID,916.419,VALID,0,VALID,97.1757,VALID,0,VALID,19.1164,VALID,158,VALID,0.573047,
2011-03-10, 02:37:04,VALID,916.387,VALID,0,VALID,97.1757,VALID,0,VALID,19.0969,VALID,158,VALID,0.547266,
2011-03-10, 02:38:04,VALID,916.37,VALID,0,VALID,97.1909,VALID,0,VALID,19.0983,VALID,158,VALID,0.490625,
2011-03-10, 02:39:04,VALID,916.387,VALID,0,VALID,97.1757,VALID,0,VALID,19.0983,VALID,158,VALID,0.607422,
2011-03-10, 02:40:04,VALID,916.396,VALID,0,VALID,97.1681,VALID,0,VALID,19.0788,VALID,158,VALID,0.599219,
2011-03-10, 02:41:04,VALID,916.385,VALID,0,VALID,97.1986,VALID,0.107441,VALID,19.0579,VALID,158,VALID,0.550391,
2011-03-10, 02:42:04,VALID,916.363,VALID,0,VALID,97.1757,VALID,0.107441,VALID,19.0788,VALID,158,VALID,0.466016,
2011-03-10, 02:43:04,VALID,916.365,VALID,0,VALID,97.1604,VALID,0.107441,VALID,19.0579,VALID,158,VALID,0.321484,
2011-03-10, 02:44:04,VALID,916.366,VALID,0,VALID,97.1604,VALID,0,VALID,19.0384,VALID,158,VALID,1.02305,
2011-03-10, 02:45:04,VALID,916.35,VALID,0,VALID,97.1604,VALID,0,VALID,19.0384,VALID,158,VALID,0.849609,
2011-03-10, 02:46:04,VALID,916.357,VALID,0,VALID,97.1604,VALID,0,VALID,19.0384,VALID,158,VALID,0.35,
2011-03-10, 02:47:04,VALID,916.333,VALID,0,VALID,97.1757,VALID,0,VALID,19.0593,VALID,158,VALID,0.558594,
2011-03-10, 02:48:04,VALID,916.332,VALID,0,VALID,97.1604,VALID,0,VALID,19.0593,VALID,158,VALID,0.0191406,
2011-03-10, 02:49:04,VALID,916.338,VALID,0,VALID,97.1452,VALID,0,VALID,19.0593,VALID,158,VALID,0.5375,
2011-03-10, 02:50:04,VALID,916.334,VALID,0,VALID,97.1604,VALID,0,VALID,19.0203,VALID,158,VALID,1.11406,
2011-03-10, 02:51:04,VALID,916.312,VALID,0,VALID,97.1452,VALID,0,VALID,19.0203,VALID,158,VALID,0.993359,
2011-03-10, 02:52:04,VALID,916.304,VALID,0,VALID,97.1376,VALID,0,VALID,19.0008,VALID,158,VALID,0.548828,
2011-03-10, 02:53:04,VALID,916.283,VALID,0,VALID,97.1452,VALID,0,VALID,19.0008,VALID,158,VALID,0.633984,
2011-03-10, 02:54:04,VALID,916.276,VALID,0,VALID,97.1376,VALID,0,VALID,19.0008,VALID,158,VALID,0.546094,
2011-03-10, 02:55:04,VALID,916.29,VALID,0,VALID,97.1147,VALID,0,VALID,18.9814,VALID,158,VALID,0.654688,
2011-03-10, 02:56:04,VALID,916.259,VALID,0,VALID,97.1071,VALID,0,VALID,18.9619,VALID,158,VALID,0.538672,
2011-03-10, 02:57:04,VALID,916.278,VALID,0,VALID,97.1071,VALID,0,VALID,18.9619,VALID,158,VALID,0.677344,
2011-03-10, 02:58:04,VALID,916.282,VALID,0,VALID,97.1071,VALID,0,VALID,18.9424,VALID,158,VALID,0.464063,
2011-03-10, 02:59:04,VALID,916.246,VALID,0,VALID,97.0994,VALID,0,VALID,18.9438,VALID,158,VALID,0.810547,
2011-03-10, 03:00:04,VALID,916.24,VALID,0,VALID,97.0918,VALID,0,VALID,18.9243,VALID,158,VALID,0.908203,
2011-03-10, 03:01:04,VALID,916.23,VALID,0,VALID,97.0918,VALID,0,VALID,18.9229,VALID,158,VALID,0.95,
2011-03-10, 03:02:04,VALID,916.237,VALID,0,VALID,97.0842,VALID,0,VALID,18.9229,VALID,158,VALID,0.892187,
2011-03-10, 03:03:04,VALID,916.231,VALID,0,VALID,97.0385,VALID,0,VALID,18.9229,VALID,158,VALID,0.827734,
2011-03-10, 03:04:04,VALID,916.208,VALID,0,VALID,97.0308,VALID,0,VALID,18.9243,VALID,158,VALID,0.752734,
2011-03-10, 03:05:04,VALID,916.243,VALID,0,VALID,96.9927,VALID,0,VALID,18.9243,VALID,158,VALID,0.755078,
2011-03-10, 03:06:04,VALID,916.253,VALID,0,VALID,96.9927,VALID,0,VALID,18.9243,VALID,158,VALID,1.00703,
2011-03-10, 03:07:04,VALID,916.261,VALID,0,VALID,97.0003,VALID,0,VALID,18.9034,VALID,158,VALID,1.12148,
2011-03-10, 03:08:04,VALID,916.258,VALID,0,VALID,96.9851,VALID,0,VALID,18.9034,VALID,158,VALID,1.07148,
2011-03-10, 03:09:04,VALID,916.247,VALID,0,VALID,96.9851,VALID,0,VALID,18.9034,VALID,158,VALID,0.957422,
2011-03-10, 03:10:04,VALID,916.275,VALID,0,VALID,96.9698,VALID,0,VALID,18.9633,VALID,158,VALID,0.577344,
2011-03-10, 03:11:04,VALID,916.258,VALID,0,VALID,96.9394,VALID,0,VALID,18.9424,VALID,158,VALID,0.836719,
2011-03-10, 03:12:04,VALID,916.255,VALID,0,VALID,96.9317,VALID,0,VALID,18.9424,VALID,158,VALID,1.1293,
2011-03-10, 03:13:04,VALID,916.233,VALID,0,VALID,96.9394,VALID,0,VALID,18.9424,VALID,158,VALID,0.954687,
2011-03-10, 03:14:04,VALID,916.254,VALID,0,VALID,96.9241,VALID,0,VALID,18.9828,VALID,158,VALID,1.34297,
2011-03-10, 03:15:04,VALID,916.267,VALID,0,VALID,96.9089,VALID,0,VALID,18.9828,VALID,158,VALID,0.741016,
2011-03-10, 03:16:04,VALID,916.295,VALID,0,VALID,96.9165,VALID,0,VALID,18.9619,VALID,158,VALID,0.849219,
2011-03-10, 03:17:04,VALID,916.276,VALID,0,VALID,96.9165,VALID,0,VALID,18.9814,VALID,158,VALID,0.949609,
2011-03-10, 03:18:04,VALID,916.262,VALID,0,VALID,96.886,VALID,0,VALID,18.9604,VALID,158,VALID,1.23672,
2011-03-10, 03:19:04,VALID,916.299,VALID,0,VALID,96.8555,VALID,0,VALID,18.9619,VALID,158,VALID,0.648438,
2011-03-10, 03:20:04,VALID,916.293,VALID,0,VALID,96.8403,VALID,0.107441,VALID,18.9409,VALID,158,VALID,1.03594,
2011-03-10, 03:21:04,VALID,916.298,VALID,0,VALID,96.8479,VALID,0.107441,VALID,18.9619,VALID,158,VALID,0.790234,
2011-03-10, 03:22:04,VALID,916.303,VALID,0,VALID,96.8707,VALID,0,VALID,18.9019,VALID,158,VALID,0.776172,
2011-03-10, 03:23:04,VALID,916.301,VALID,0,VALID,96.8707,VALID,0,VALID,18.9229,VALID,158,VALID,0.471875,
2011-03-10, 03:24:04,VALID,916.316,VALID,0,VALID,96.8707,VALID,0,VALID,18.9214,VALID,158,VALID,0.589844,
2011-03-10, 03:25:04,VALID,916.309,VALID,0,VALID,96.8784,VALID,0,VALID,18.9229,VALID,158,VALID,0.998047,
2011-03-10, 03:26:04,VALID,916.305,VALID,0,VALID,96.886,VALID,0,VALID,18.9214,VALID,158,VALID,0.768359,
2011-03-10, 03:27:04,VALID,916.289,VALID,0,VALID,96.8784,VALID,0,VALID,18.8824,VALID,158,VALID,0.832422,
2011-03-10, 03:28:04,VALID,916.302,VALID,0,VALID,96.886,VALID,0,VALID,18.9034,VALID,158,VALID,0.551562,
2011-03-10, 03:29:04,VALID,916.305,VALID,0,VALID,96.8784,VALID,0.107441,VALID,18.9034,VALID,158,VALID,0.574219,
2011-03-10, 03:30:04,VALID,916.289,VALID,0,VALID,96.8936,VALID,0,VALID,18.8839,VALID,158,VALID,0.533203,
2011-03-10, 03:31:04,VALID,916.265,VALID,0,VALID,96.8936,VALID,0,VALID,18.8839,VALID,158,VALID,0.484375,
2011-03-10, 03:32:04,VALID,916.256,VALID,0,VALID,96.8631,VALID,0,VALID,18.8853,VALID,158,VALID,0.860547,
2011-03-10, 03:33:04,VALID,916.25,VALID,0,VALID,96.8555,VALID,0,VALID,18.8449,VALID,158,VALID,0.804297,
2011-03-10, 03:34:04,VALID,916.215,VALID,0,VALID,96.7716,VALID,0,VALID,18.8268,VALID,158,VALID,0.901953,
2011-03-10, 03:35:04,VALID,916.246,VALID,0,VALID,96.7716,VALID,0,VALID,18.8463,VALID,158,VALID,0.955859,
2011-03-10, 03:36:04,VALID,916.218,VALID,0,VALID,96.7335,VALID,0,VALID,18.8463,VALID,158,VALID,0.798437,
2011-03-10, 03:37:04,VALID,916.178,VALID,0,VALID,96.703,VALID,0,VALID,18.8449,VALID,158,VALID,1.06641,
2011-03-10, 03:38:04,VALID,916.173,VALID,0,VALID,96.6802,VALID,0,VALID,18.8658,VALID,158,VALID,0.727344,
2011-03-10, 03:39:04,VALID,916.19,VALID,0,VALID,96.6115,VALID,0,VALID,18.8449,VALID,158,VALID,0.86875,
2011-03-10, 03:40:04,VALID,916.168,VALID,0,VALID,96.5506,VALID,0,VALID,18.8658,VALID,158,VALID,1.3082,
2011-03-10, 03:41:04,VALID,916.176,VALID,0,VALID,96.4819,VALID,0,VALID,18.8853,VALID,158,VALID,1.05352,
2011-03-10, 03:42:04,VALID,916.178,VALID,0,VALID,96.3981,VALID,0,VALID,18.8839,VALID,158,VALID,0.547266,
2011-03-10, 03:43:04,VALID,916.201,VALID,0,VALID,96.36,VALID,0,VALID,18.9048,VALID,158,VALID,1.0668,